Regional Weather Roundup
Issued by NWS

Home | Current Version | Previous Version | Text Only | Print | Product List | Glossary On
Versions: 1 2 3 4 5 6 7 8 9 10 11 12 13 14 15 16 17 18 19 20 21 22 23 24 25 26 27 28 29 30 31 32 33 34 35 36 37 38 39 40 41 42 43 44 45 46 47 48 49 50
000
ASUS43 KDTX 280901
RWRMI
MICHIGAN HOURLY REGIONAL WEATHER ROUNDUP
NATIONAL WEATHER SERVICE DETROIT/PONTIAC MI
500 AM EDT TUE APR 28 2015

NOTE: "FAIR" INDICATES FEW OR NO CLOUDS BELOW 12,000 FEET WITH NO
SIGNIFICANT WEATHER AND/OR OBSTRUCTION TO VISIBILITY.

MIZ047>049-052>055-059>063-066>070-074>076-081>083-281000-
SOUTHEAST LOWER MICHIGAN

CITY           SKY/WX    TMP DP  RH WIND       PRES   REMARKS
ADRIAN         CLEAR     32  30  92 N3        30.11R
ALMA           CLEAR     34  33  95 CALM      30.12R
ANN ARBOR      CLEAR     31  29  92 CALM      30.10S
BAD AXE        CLEAR     35  32  90 CALM      30.10S
CARO           CLOUDY    31  29  92 CALM      30.10S
DETROIT CITY   CLEAR     35  31  85 NW3       30.10R
DETROIT        PTCLDY    39  32  76 W3        30.11R
FLINT          CLEAR     33  28  81 CALM      30.11S
GROSSE ILE     CLEAR     36  32  87 CALM      30.09R
HILLSDALE      CLEAR     34  33  96 E3        30.10R
HOWELL         PTCLDY    32  30  94 W3        30.10S

CITY           SKY/WX    TMP DP  RH WIND       PRES   REMARKS
JACKSON        CLEAR     33  29  85 CALM      30.10S
LAMBERTVILLE   CLEAR     34  32  93 CALM      30.11R
LANSING        CLEAR     38  31  76 CALM      30.12R
LAPEER         FAIR      28  28  98 CALM      30.10R
MASON          CLEAR     31  28  91 CALM      30.11S
MONROE         CLEAR     32  30  93 CALM      30.09R
PONTIAC        CLEAR     35  31  85 W5        30.09R WCI  31
PORT HOPE        N/A     39  35  86 N3        30.08S
PORT HURON     CLEAR     30  28  93 CALM      30.10R
TRI CITIES     CLEAR     38  33  82 W6        30.12R WCI  33
MIDLAND        FAIR      33  32  97 CALM      30.11S
TROY           CLEAR     40  32  72 N3        30.11R
SAGINAW HB     PTCLDY    34  32  93 CALM      30.11R
$$
MIZ043>046-050>051-056>058-064>065-071>073-077>080-281000-
SOUTHWEST LOWER MICHIGAN

CITY           SKY/WX    TMP DP  RH WIND       PRES   REMARKS
BATTLE CREEK   CLEAR     34  30  85 CALM      30.11R
BENTON HARBOR  CLEAR     31  30  96 CALM      30.12R
BIG RAPIDS     CLEAR     33  31  92 CALM      30.11S
COLDWATER      CLEAR     32  31  97 CALM      30.10S
FREMONT        FAIR      37  32  84 CALM      30.11S
HOLLAND        CLEAR     37  32  82 CALM      30.12R
GRAND RAPIDS   CLEAR     37  32  82 CALM      30.11R
IONIA          FAIR      38  32  78 SE5       30.11R WCI  35
KALAMAZOO      CLEAR     36  32  85 CALM      30.11R
LUDINGTON      CLEAR     32  29  90 CALM      30.13S
MARSHALL       CLEAR     30  29  96 CALM      30.10S
MOUNT PLEASANT CLEAR     34  33  95 CALM      30.11S
MUSKEGON       CLEAR     39  32  76 NE5       30.12R
SOUTH HAVEN    CLEAR     32  31  96 CALM      30.12R
$$
MIZ016>042-281000-
NORTHERN LOWER MICHIGAN

CITY           SKY/WX    TMP DP  RH WIND       PRES   REMARKS
BEAVER ISLAND  CLOUDY    40  33  76 CALM      30.15S
BELLAIRE       MOCLDY    42  34  73 CALM      30.13S
CADILLAC       CLEAR     29  27  93 CALM      30.10S
CHARLEVOIX     CLOUDY    38  34  84 N3        30.16F
FRANKFORT      CLEAR     34  29  81 CALM      30.13S
GAYLORD        CLOUDY    41  35  79 N3        30.10S
GRAYLING       CLEAR     36  32  85 CALM      30.11S
HARBOR SPRINGS CLOUDY    37  33  87 CALM      30.13S
HOUGHTON LAKE  CLEAR     32  30  92 CALM      30.11R
MANISTEE       CLEAR     30  28  93 CALM      30.14R
OSCODA         CLOUDY    44  36  73 N6        30.10S
PELLSTON       CLOUDY    42  35  76 CALM      30.14S
ROGERS CITY    CLOUDY    41  35  81 NE3       30.13S
TRAVERSE CITY  CLEAR     33  30  88 CALM      30.12S
$$
MIZ007>008-015-281000-
EASTERN UPPER MICHIGAN

CITY           SKY/WX    TMP DP  RH WIND       PRES   REMARKS
KINROSS        CLOUDY    37  36  93 N3        30.14R
MACKINAC ISLAN CLOUDY    40  34  79 N5        30.13R
NEWBERRY       CLEAR     34  32  93 NW5       30.14S WCI  30
S. S. MARIE    CLOUDY    42  34  73 CALM      30.13S
$$
MIZ004>006-011>014-085-281000-
CENTRAL UPPER MICHIGAN

CITY           SKY/WX    TMP DP  RH WIND       PRES   REMARKS
MANISTIQUE     CLOUDY    38  33  81 N5        30.15R WCI  35
ESCANABA       CLEAR     34  28  80 CALM      30.16R
MENOMINEE      CLEAR     34  28  80 CALM      30.15S
SAWYER-GWINN   CLEAR     30  28  92 CALM      30.15R
$$
MIZ001>003-009>011-084-281000-
WESTERN UPPER MICHIGAN

CITY           SKY/WX    TMP DP  RH WIND       PRES   REMARKS
IRON MOUNTAIN  CLEAR     29  26  89 NW3       30.15S
HOUGHTON       CLEAR     32  28  85 CALM      30.13F
COPPER HARBOR    N/A     37  30  75 W6        30.13F WCI  32
IRONWOOD       CLEAR     30  30 100 CALM      30.13R
$$

ABBREVIATIONS USED IN REMARKS
   TC - TEMPERATURE IN CELSIUS
  WCI - WIND CHILL INDEX
   HX - HEAT INDEX
  VSB - VISIBILITY




USA.gov is the U.S. government's official web portal to all federal, state and local government web resources and services.